GFSMW_925_thetae_093.txt.gz
Theta_e
311 315 311 311 311 312 311 313 336 340 341 339 338 337 338 339 340 341 341 338 337 335 335 334 332 331 329 327 328 329 329 328 328 327 325 325 324 325 326 325 323 323 322
315 316 315 315 310 311 312 314 333 337 340 339 338 337 338 337 338 339 339 337 336 335 335 334 332 333 329 328 327 328 326 327 328 327 322 321 320 322 324 324 323 323 322
314 313 314 314 314 316 312 320 331 336 338 338 336 335 336 335 334 336 336 334 335 334 334 333 330 331 328 329 329 327 326 327 327 327 324 322 323 321 321 322 323 323 322
313 312 312 313 312 313 317 323 332 336 338 337 335 333 333 333 333 334 334 333 334 334 333 332 332 330 330 328 328 326 326 326 326 325 325 321 320 322 321 319 321 321 321
311 310 312 311 311 312 315 326 335 336 337 335 334 332 332 331 330 331 330 333 333 332 332 332 331 331 329 328 327 326 326 326 325 325 323 321 320 320 320 321 318 318 319
309 309 308 309 308 310 314 330 336 336 335 333 332 332 330 328 328 328 328 330 331 331 331 330 329 329 328 328 326 326 326 325 326 324 323 321 320 320 319 318 318 319 319
307 307 306 306 306 308 311 322 337 336 333 332 330 331 329 328 328 326 326 327 326 327 328 327 328 327 328 327 327 326 325 325 326 324 322 321 320 319 319 319 318 317 318
305 305 304 303 304 306 308 316 336 334 332 331 331 329 329 327 327 326 326 326 325 325 326 328 328 328 328 327 326 326 326 325 326 323 321 320 320 320 320 319 319 318 317
303 303 302 301 302 303 305 309 330 332 332 331 329 328 327 328 326 326 326 325 326 327 328 327 327 327 327 326 326 326 326 326 325 324 322 320 320 319 320 319 317 319 319
301 300 300 299 301 301 303 306 315 332 330 329 329 327 327 327 328 327 326 326 326 326 327 327 326 325 325 324 324 324 325 325 325 324 321 321 320 320 320 320 317 320 320
299 298 298 297 298 300 300 303 308 325 329 328 328 327 327 327 328 327 326 327 327 326 326 325 323 324 323 323 322 323 323 324 324 323 322 321 321 322 321 319 320 320 320
297 297 296 296 296 297 299 300 303 309 323 329 328 327 327 326 326 326 327 327 326 325 324 323 321 321 322 323 323 323 323 323 323 323 322 322 321 321 321 320 320 320 320
296 296 295 295 294 295 297 298 299 303 309 325 326 326 326 326 326 326 326 325 324 324 323 323 322 322 322 323 323 322 322 323 323 322 321 321 321 321 321 320 319 320 318
296 295 294 293 293 293 294 296 297 300 304 309 320 323 326 326 326 326 325 324 324 323 322 322 322 321 321 321 321 322 322 322 322 322 322 322 322 320 320 320 319 317 316
295 294 293 292 292 292 293 294 295 297 300 301 305 309 309 318 323 324 324 323 322 321 320 319 318 317 317 318 320 321 321 320 321 320 320 321 321 321 321 319 318 316 316
294 293 292 292 291 291 291 292 294 295 297 296 297 298 301 301 308 311 311 314 312 313 314 313 312 310 311 312 318 319 319 318 318 316 314 316 318 319 319 319 318 317 316
293 292 292 291 290 290 290 291 291 292 294 295 294 293 293 293 294 297 299 300 301 303 304 303 304 302 301 304 311 316 315 311 308 307 307 306 304 308 309 312 313 313 314
291 291 290 289 289 289 289 289 289 290 290 291 292 292 292 291 291 291 291 291 293 294 293 295 296 295 292 295 302 305 305 302 300 300 299 301 299 300 302 302 301 298 299
291 290 289 289 288 288 288 288 288 288 288 288 289 290 290 291 290 288 288 288 288 288 288 289 290 291 290 292 294 296 295 293 292 293 293 294 294 293 296 298 292 288 285
290 290 289 289 288 288 287 287 286 286 286 286 287 288 288 288 288 288 288 288 287 286 286 286 286 286 287 289 292 292 289 288 287 288 289 290 290 290 290 291 289 285 284
288 287 286 287 288 287 286 285 284 284 284 286 287 287 287 287 286 286 286 286 286 286 285 285 285 285 286 286 287 289 289 286 286 285 285 285 287 288 288 288 286 283 283
286 285 285 285 286 286 285 285 284 283 284 285 285 285 286 286 286 285 285 284 284 284 284 284 284 284 284 284 285 286 286 285 284 283 284 284 283 283 283 283 282 282 282
284 284 284 284 284 285 284 284 283 283 283 283 283 283 284 284 284 284 284 283 283 283 283 283 283 283 283 283 283 283 284 283 283 281 280 282 281 282 281 281 281 281 280
281 282 282 282 282 283 284 284 283 283 282 282 281 281 281 282 282 282 282 282 282 281 282 282 283 283 283 283 282 281 281 281 281 282 282 281 281 280 280 279 279 278 278
280 280 280 280 280 282 283 284 284 283 282 281 281 280 280 280 280 280 280 280 281 281 281 282 282 283 283 283 282 282 281 280 280 280 280 279 279 278 278 277 277 277 277
278 278 278 278 279 280 282 282 283 284 283 281 280 279 279 279 279 280 280 280 280 281 281 282 282 283 283 282 281 281 280 279 279 278 276 275 275 274 274 274 274 274 275

GFSMW_925_thetae_096.txt.gz
Theta_e
314 313 313 313 314 315 314 308 310 322 338 339 338 337 336 336 336 336 335 335 335 334 335 334 332 328 328 328 328 327 327 327 327 327 325 324 326 327 327 328 328 328 324
314 313 312 312 313 312 313 315 308 317 335 338 338 338 337 337 337 336 336 337 336 335 336 334 332 329 328 328 327 326 328 327 327 327 324 322 321 323 325 326 327 325 323
313 311 310 311 311 310 310 312 316 321 331 338 338 337 336 335 334 333 336 335 337 337 336 334 332 330 328 327 328 328 328 328 327 327 324 321 324 321 321 324 325 325 323
311 309 309 309 309 309 309 310 314 318 334 337 337 335 336 334 334 333 332 332 333 336 336 334 334 333 329 328 329 328 327 327 326 325 325 323 321 323 321 320 322 323 323
309 307 307 306 306 307 307 310 314 321 333 337 336 335 335 334 333 332 321 321 331 334 334 334 333 332 329 327 329 328 327 326 325 326 324 321 321 321 321 322 318 321 322
307 306 305 304 304 305 305 307 313 325 335 336 335 333 333 332 332 332 329 329 331 332 333 333 332 330 330 328 329 328 327 326 325 325 325 324 322 320 320 320 321 320 319
305 304 303 302 302 303 303 305 309 319 335 334 333 332 332 330 330 331 331 329 329 330 331 330 330 330 331 329 328 327 326 326 326 325 325 323 323 322 321 321 320 319 317
303 302 301 300 300 301 302 303 306 312 334 333 333 331 331 328 329 328 327 327 328 329 328 329 328 330 327 326 327 326 326 325 326 325 324 323 322 320 321 320 319 318 317
300 300 299 298 298 299 301 302 304 310 331 332 330 329 330 329 327 327 327 327 327 327 327 325 325 327 326 326 327 327 326 325 325 324 324 323 321 320 320 320 319 319 320
298 298 297 297 297 297 298 301 302 308 330 330 329 328 327 328 327 327 325 326 325 325 324 324 324 326 327 327 326 326 325 325 325 325 324 322 320 320 320 319 319 319 319
297 296 295 295 295 296 297 298 301 305 313 328 327 328 327 327 326 326 324 325 325 325 327 327 326 326 326 325 325 324 324 324 325 325 324 321 320 320 320 319 318 317 317
296 295 294 294 294 294 295 296 299 302 306 319 327 326 326 327 327 325 325 325 325 325 326 326 326 323 322 323 322 322 322 322 323 323 324 322 320 320 319 319 319 317 317
295 294 293 293 293 293 293 295 296 299 302 309 321 325 326 326 325 325 326 325 325 325 324 324 321 320 321 322 322 323 323 323 323 323 323 321 320 320 319 319 318 318 319
295 294 293 293 292 292 292 293 294 296 298 299 304 308 313 325 325 324 324 325 324 323 322 321 319 319 321 321 321 322 322 322 322 322 322 321 320 320 319 318 319 319 318
294 293 293 292 291 291 291 291 292 294 296 296 296 296 300 309 313 321 323 323 322 320 318 317 316 317 319 320 320 320 320 321 321 321 320 321 321 321 320 319 319 320 318
293 292 292 291 290 290 290 290 291 291 292 294 294 295 297 298 298 299 313 315 313 312 312 311 311 312 312 314 318 319 319 318 318 317 315 316 319 320 319 319 318 318 316
292 291 291 290 289 289 289 289 289 290 290 291 291 292 294 293 294 293 295 299 300 303 303 302 302 301 302 307 312 315 314 310 307 308 308 311 306 312 316 317 317 317 316
291 290 290 289 288 288 288 287 287 288 288 289 289 290 291 292 295 292 289 290 292 292 292 292 293 294 293 298 305 306 303 300 298 299 299 301 301 304 306 306 306 301 302
290 289 289 288 287 286 286 286 286 286 286 287 287 288 289 290 290 291 290 289 288 287 287 288 289 289 290 293 297 300 298 294 292 292 294 294 294 294 298 300 292 287 285
287 287 287 287 287 286 285 285 284 284 284 284 285 286 286 287 287 287 287 287 287 287 287 286 287 287 287 289 292 293 291 289 288 288 288 289 290 291 292 293 289 284 282
286 285 286 286 285 285 284 283 283 283 283 284 284 285 285 285 285 285 285 285 285 285 285 285 285 285 286 286 289 290 289 286 285 285 285 285 287 287 289 290 288 285 284
284 284 284 284 285 284 284 283 282 282 283 284 283 283 284 284 284 284 284 284 284 284 284 284 283 283 284 284 285 286 286 285 284 283 283 283 282 281 282 283 282 283 283
282 282 282 283 282 284 284 283 282 282 282 282 282 282 283 283 283 283 282 282 283 283 283 283 283 283 282 281 282 283 284 283 282 281 280 281 282 281 280 280 280 281 281
280 280 280 280 281 281 283 284 283 282 282 281 280 280 281 281 282 282 282 282 282 282 282 283 283 283 282 282 281 282 281 281 281 281 280 280 280 280 279 279 279 278 278
278 278 279 279 279 280 282 282 283 282 281 281 280 280 279 280 281 281 281 281 282 283 282 283 283 283 282 281 282 282 281 281 280 280 280 279 279 278 277 277 277 277 277
277 277 277 277 278 279 280 281 282 283 282 280 279 279 279 279 279 279 279 280 281 282 283 283 282 282 281 281 280 280 280 280 280 279 276 275 275 274 274 274 274 274 274

GFSMW_925_thetae_099.txt.gz
Theta_e
315 314 313 313 313 314 314 315 315 316 313 332 335 334 334 335 334 333 332 334 333 335 334 334 331 331 330 330 328 327 326 328 328 328 326 326 326 324 323 326 327 327 328
316 314 312 312 311 311 311 312 313 314 314 325 333 334 334 335 335 334 333 333 332 333 335 334 332 331 330 329 328 328 328 328 328 326 324 325 323 325 326 326 327 327 327
314 313 311 310 309 309 309 310 311 312 314 317 332 335 335 336 334 335 334 333 333 333 334 334 331 331 330 328 328 328 327 327 327 327 325 324 327 322 323 325 326 326 327
312 311 309 308 307 307 306 306 308 311 314 318 329 334 333 333 334 335 334 334 333 332 331 332 332 331 329 328 328 328 327 328 327 327 326 324 324 326 324 321 324 325 326
310 308 307 306 305 304 303 304 305 308 313 320 326 335 334 334 334 335 334 333 332 333 327 321 329 331 330 328 328 328 327 328 327 327 324 322 322 323 324 325 320 321 323
307 306 304 303 302 301 301 302 304 306 310 321 327 334 334 334 334 333 333 334 331 325 322 323 329 331 329 328 328 328 328 327 327 327 325 325 323 324 325 326 323 322 320
304 303 303 301 300 299 299 300 302 304 308 316 331 335 333 333 334 333 332 330 327 323 321 323 331 331 329 327 327 327 327 327 326 326 326 325 325 325 325 325 323 323 318
302 302 300 299 298 298 298 299 301 303 306 317 333 334 333 332 333 333 328 328 327 327 327 330 331 331 329 329 326 326 327 327 326 326 325 325 324 324 323 325 324 322 318
301 300 299 298 297 297 297 297 299 302 306 315 332 332 331 330 330 333 332 329 329 329 329 330 330 330 329 327 325 325 326 326 326 326 325 325 324 323 323 323 322 322 321
300 299 298 296 295 295 296 296 298 300 305 311 331 330 329 329 328 327 327 328 328 327 327 328 329 328 327 328 326 325 325 326 325 325 325 324 324 323 322 321 321 321 320
299 298 296 295 294 294 294 295 296 299 303 305 325 327 326 326 326 327 327 327 326 322 325 326 326 325 325 325 326 326 326 325 325 325 325 324 324 323 321 320 320 319 318
298 297 296 294 293 293 293 294 295 296 300 301 311 325 325 325 325 326 325 325 323 325 324 322 322 324 325 326 326 326 325 325 324 324 324 324 323 322 321 320 319 319 318
297 296 295 294 293 292 292 292 293 294 297 298 301 307 315 322 324 324 323 324 324 324 322 322 323 325 325 324 324 322 322 322 322 321 323 323 322 320 320 320 319 318 318
295 295 294 293 292 291 291 291 291 292 293 296 297 298 300 306 314 324 323 323 324 323 322 323 323 322 321 321 321 321 322 322 322 322 322 322 322 321 320 319 318 318 317
294 293 293 292 291 290 290 290 290 290 291 293 294 295 295 299 302 312 318 321 323 323 322 320 319 318 319 319 319 320 321 321 321 320 321 321 321 320 320 319 318 318 317
293 292 291 291 290 289 289 288 289 289 290 290 291 293 293 295 297 296 307 300 312 314 315 314 314 313 313 315 318 319 318 317 315 316 314 317 320 320 319 319 318 317 317
292 291 290 290 289 288 288 288 287 287 288 289 289 290 292 292 293 295 293 295 292 302 301 300 302 302 304 305 312 316 315 311 307 305 306 307 308 309 315 317 317 318 317
290 290 289 288 288 287 286 287 286 286 286 286 287 287 288 290 291 294 294 292 290 289 291 292 293 295 295 298 301 307 305 302 300 299 300 300 301 302 302 311 309 305 307
288 287 287 286 286 286 285 285 285 285 285 285 285 286 286 286 288 290 291 291 290 287 287 288 289 290 290 293 294 297 297 294 292 293 295 295 295 295 300 301 298 293 291
286 287 286 285 285 284 284 284 284 284 283 283 284 284 285 285 285 286 286 288 288 286 286 286 286 287 288 290 291 291 290 288 288 287 287 289 291 292 295 294 290 285 284
286 285 285 285 285 284 283 283 283 282 282 282 282 283 284 284 284 285 285 285 285 285 284 284 283 284 285 285 287 289 288 286 285 284 284 284 286 288 288 289 287 283 284
284 284 284 284 284 284 284 283 283 282 281 281 282 282 282 282 283 284 284 284 285 284 284 283 282 282 282 283 283 284 284 284 283 282 282 282 282 283 283 282 281 281 281
282 283 283 283 283 283 283 284 283 282 282 281 281 282 282 282 282 283 283 284 284 284 284 284 284 283 282 281 282 283 282 281 280 279 279 279 279 281 281 283 282 281 279
280 281 281 281 281 281 282 282 283 282 283 282 282 282 282 281 282 283 283 284 284 284 285 285 284 283 283 282 282 281 281 281 281 281 280 280 279 279 279 279 279 280 280
278 279 279 280 279 280 281 281 282 283 282 281 282 282 281 281 281 281 282 283 283 283 284 284 284 283 282 281 282 282 281 280 279 279 279 279 278 277 277 277 277 277 277
277 277 277 277 277 278 279 280 280 282 283 282 281 280 281 281 280 281 281 280 281 281 281 281 281 281 280 280 279 279 280 281 281 279 278 277 277 276 276 275 275 274 274

GFSMW_925_thetae_102.txt.gz
Theta_e
319 318 317 317 317 317 316 316 317 318 320 320 318 329 333 337 335 337 338 337 337 337 336 335 333 333 332 333 331 330 329 330 330 330 329 329 329 328 326 324 324 325 328
318 318 316 316 316 315 315 315 315 316 316 318 319 322 331 332 333 335 338 337 336 336 335 334 333 332 332 332 331 331 328 329 329 328 327 328 325 328 327 326 325 325 326
318 317 315 314 313 313 312 312 312 313 314 316 318 320 328 332 334 335 337 337 336 335 334 333 332 331 331 331 333 330 329 329 329 329 329 328 331 325 325 325 325 325 326
316 315 314 312 311 310 308 307 308 309 310 313 316 321 323 332 333 333 335 335 335 334 332 332 332 332 330 331 331 330 330 330 329 329 329 329 327 329 326 323 326 326 325
314 313 311 309 308 307 305 303 304 305 307 308 312 318 322 332 332 333 334 335 334 333 332 331 331 331 331 331 331 331 331 330 329 329 328 328 327 328 328 327 323 326 325
313 311 309 308 307 306 304 301 301 302 304 306 309 315 324 327 333 333 334 334 334 333 332 332 332 331 330 330 330 330 331 331 329 329 328 328 328 328 327 328 326 325 323
311 310 308 307 305 304 302 300 299 300 301 304 307 314 324 326 335 333 335 333 332 333 332 331 329 328 324 326 329 330 330 330 329 328 328 327 326 326 325 327 326 325 320
309 308 306 305 304 302 301 299 297 298 299 302 307 313 328 329 334 333 334 333 332 333 334 329 326 323 321 324 329 330 331 330 329 328 327 327 326 327 326 326 325 327 323
308 306 305 303 302 301 299 297 296 297 298 302 305 313 334 334 335 333 333 333 334 335 331 328 327 325 327 329 329 330 330 328 328 328 327 326 326 325 325 325 325 325 325
306 305 303 301 300 299 298 295 295 296 297 300 303 312 331 333 332 332 332 331 332 331 330 328 328 328 329 329 329 330 328 327 327 327 327 326 327 326 325 324 324 324 323
305 303 302 300 299 298 297 294 294 294 295 298 301 307 328 330 331 331 331 331 330 330 328 327 328 328 328 327 327 327 328 327 326 326 327 326 325 325 325 325 326 326 325
302 301 300 299 298 297 295 293 292 293 293 295 299 302 309 318 327 328 328 329 328 328 328 328 326 326 327 327 326 327 326 326 326 326 325 325 325 325 325 325 325 324 323
301 300 300 299 297 296 294 291 291 291 291 293 296 298 299 303 313 324 327 326 327 327 325 325 324 325 326 327 325 326 326 326 325 325 325 325 324 324 324 323 322 321 320
299 298 298 298 296 295 294 290 289 290 291 291 294 295 296 297 300 310 322 324 324 324 325 326 325 325 324 324 325 324 324 324 324 325 324 325 324 323 323 322 321 320 319
296 296 296 295 294 293 292 291 289 289 289 290 291 292 294 295 295 304 306 315 323 323 323 322 322 322 322 322 322 322 322 322 323 322 322 321 321 322 322 321 320 320 318
295 294 294 293 293 291 290 290 290 288 288 288 289 290 291 293 293 296 298 296 304 306 312 316 315 315 314 316 319 320 319 320 319 316 314 315 317 318 322 321 320 319 318
293 292 292 291 290 289 289 289 289 289 287 287 287 288 289 290 291 292 295 293 293 293 292 299 306 304 305 309 315 314 313 311 308 306 305 306 307 308 311 319 318 318 318
290 290 289 289 288 288 288 288 288 288 288 286 286 286 287 287 288 290 290 293 292 291 291 291 292 294 294 299 304 305 304 300 298 298 298 299 299 301 302 310 311 308 312
289 288 288 288 287 287 287 287 287 287 287 286 286 286 285 286 286 286 287 288 289 290 286 287 289 289 290 293 295 298 295 293 291 292 294 294 295 296 299 300 298 295 294
287 288 287 286 286 285 286 286 286 285 285 285 284 285 285 285 286 286 286 285 285 285 285 285 284 286 287 289 291 292 290 288 287 287 288 289 290 293 295 296 289 286 285
287 287 287 286 286 286 285 285 285 284 284 284 284 284 285 285 286 286 286 286 285 285 284 283 282 283 284 285 287 288 287 285 284 284 284 284 286 288 289 290 287 284 284
286 286 286 286 285 286 286 286 285 284 284 284 284 284 284 285 286 286 286 286 287 286 285 284 283 282 281 282 282 282 283 283 283 282 282 282 282 282 283 283 281 283 284
285 286 286 285 285 285 285 286 285 285 285 284 284 284 284 284 285 285 286 287 287 287 286 286 285 284 283 282 281 282 282 281 280 280 280 279 279 280 280 280 281 282 281
283 284 285 284 284 284 284 284 285 286 285 285 285 284 284 284 283 285 284 284 285 286 286 286 285 285 283 283 283 282 282 281 281 281 281 281 281 281 280 280 280 280 279
281 281 282 282 282 282 282 283 284 285 285 284 285 285 284 284 284 281 281 282 281 282 284 283 283 283 282 281 281 281 281 281 281 282 282 281 282 281 280 280 280 280 280
279 279 279 280 280 280 280 280 282 282 283 283 283 282 284 284 284 284 282 279 279 280 280 280 281 280 280 279 279 279 280 280 282 283 282 281 281 281 280 280 279 279 279

GFSMW_925_thetae_108.txt.gz
Theta_e
321 320 320 320 319 319 319 318 317 317 317 319 320 321 322 324 324 326 336 340 341 341 341 342 342 341 341 339 341 339 339 338 337 336 335 334 334 333 333 332 331 331 329
320 320 319 318 318 317 316 315 315 314 314 316 317 318 318 319 321 324 326 334 337 339 340 341 342 340 339 338 339 337 336 336 334 334 330 329 329 330 332 332 330 329 327
321 319 318 317 316 315 314 314 313 312 312 313 314 315 316 317 321 321 321 324 336 336 338 341 341 340 335 331 337 336 335 334 335 332 329 328 329 327 329 331 330 328 326
319 317 317 315 314 313 312 312 311 310 310 310 310 310 312 313 315 317 322 324 334 336 337 338 340 338 335 336 333 335 334 333 333 332 331 330 330 328 328 329 330 328 327
318 316 315 313 312 311 311 310 308 307 306 307 306 305 305 308 311 314 318 322 325 336 336 338 338 338 336 331 335 335 334 332 331 331 330 330 331 331 327 325 326 329 327
316 314 312 311 310 309 308 306 305 304 304 304 302 301 302 303 306 309 313 317 324 328 335 335 338 337 336 335 334 327 332 332 332 331 331 330 331 331 329 327 324 325 327
314 312 311 309 308 307 306 304 303 303 303 302 300 299 300 301 303 306 309 313 319 327 329 332 337 338 336 333 332 330 332 332 332 332 331 331 330 331 330 329 327 325 326
312 310 309 308 307 306 304 303 301 301 300 299 298 297 298 300 303 306 309 312 317 324 328 328 333 335 335 333 333 332 332 331 331 325 331 331 330 331 330 330 328 327 323
309 309 308 307 305 304 303 301 299 298 298 297 296 296 298 300 302 304 308 314 318 322 331 334 334 334 334 333 332 328 328 322 322 323 320 330 330 330 331 329 328 326 326
307 307 306 305 304 302 301 300 298 296 296 295 295 295 296 298 300 303 307 317 323 329 332 334 333 333 333 332 330 328 328 331 333 332 331 330 331 330 330 329 328 327 325
305 305 305 304 302 300 299 298 297 294 293 293 294 294 294 295 298 300 303 307 320 329 332 333 333 332 332 332 332 331 331 331 331 331 330 330 330 329 328 328 328 327 326
304 303 303 302 300 299 298 297 295 294 291 291 292 293 292 293 296 297 299 302 307 326 330 332 332 332 331 330 330 331 330 329 328 326 329 327 330 328 328 327 327 326 325
302 301 300 299 298 297 296 295 294 293 291 290 290 291 291 291 293 294 295 298 305 316 325 328 330 330 329 329 329 328 327 325 321 321 322 328 328 328 328 327 327 326 325
300 298 298 296 295 294 294 294 293 292 291 289 289 289 289 290 290 292 293 294 299 304 311 320 328 328 329 329 326 324 324 322 322 325 326 327 327 326 326 326 325 325 325
298 297 295 294 293 292 292 292 292 291 290 289 289 289 289 289 288 289 290 291 293 297 299 301 314 316 323 322 327 327 323 322 320 325 327 326 326 326 325 326 325 324 324
295 294 293 292 291 291 291 291 290 290 289 288 288 288 288 288 288 287 287 288 289 291 293 294 296 296 300 312 325 327 327 325 322 323 322 320 320 321 321 320 322 322 322
292 291 291 291 290 290 290 290 289 288 288 288 288 288 288 288 288 287 286 285 285 287 288 290 292 291 293 298 307 324 323 322 315 311 310 311 311 314 314 315 315 315 316
290 290 289 289 289 288 288 288 288 287 287 287 287 288 288 288 288 288 286 285 284 284 284 285 287 288 289 292 292 296 307 306 301 300 300 301 302 304 307 306 306 305 305
290 289 288 288 288 287 287 287 287 287 287 287 287 287 287 287 288 288 288 287 285 284 283 283 283 284 286 290 291 289 290 289 289 290 291 293 295 296 299 300 299 296 295
289 289 287 288 288 288 288 287 287 287 287 286 286 286 287 286 287 288 287 288 287 286 285 284 283 283 283 284 286 289 286 285 285 285 285 285 287 291 293 296 294 290 288
289 288 288 288 287 288 288 288 288 287 287 287 286 285 285 285 285 285 286 287 287 286 285 284 284 284 283 283 282 283 283 283 283 283 283 283 284 284 285 289 289 285 287
289 288 288 287 287 287 287 288 289 288 288 287 287 285 284 284 284 283 283 284 285 285 285 284 283 283 283 284 283 282 282 282 281 282 282 282 283 282 282 282 282 284 286
287 287 287 286 285 285 285 286 286 287 287 287 287 287 285 283 283 282 281 282 282 283 282 282 282 282 281 282 283 284 284 283 283 283 282 282 282 282 282 281 283 283 282
285 285 285 284 283 283 283 284 285 286 286 285 286 286 286 284 282 282 281 280 280 280 281 280 280 280 280 281 282 283 284 284 284 284 283 283 283 282 282 282 281 281 280
283 283 283 282 281 281 281 282 283 284 285 285 284 285 285 285 284 281 281 280 279 279 279 279 279 279 279 280 281 282 283 284 284 284 284 283 283 282 282 282 282 282 282
282 281 281 280 280 279 279 280 281 282 283 283 284 283 283 283 283 283 282 280 280 280 279 278 278 278 279 280 280 281 281 282 282 282 282 282 281 281 281 281 280 281 281

GFSMW_925_thetae_111.txt.gz
Theta_e
318 319 318 317 317 316 315 314 314 313 313 313 313 314 316 317 318 320 322 324 329 337 340 342 340 338 340 341 340 341 341 340 340 338 337 335 336 335 334 334 333 333 331
318 317 316 316 314 314 313 312 311 311 310 310 310 311 311 314 315 317 318 319 321 323 332 339 340 341 339 340 339 338 339 338 339 335 332 331 330 334 333 333 333 332 331
318 315 314 313 312 311 311 309 308 308 307 307 307 307 307 309 310 312 314 318 319 321 322 331 338 340 340 338 338 338 335 335 336 334 330 327 327 323 329 332 330 330 329
315 313 311 310 309 309 308 307 306 305 304 304 304 303 303 304 305 306 308 310 314 315 318 323 334 336 339 337 336 335 328 322 328 332 332 328 327 323 327 329 331 330 329
312 310 309 308 307 307 305 304 303 303 302 302 301 300 300 300 302 303 305 307 309 312 315 319 326 334 335 335 336 332 323 327 331 320 329 330 328 327 322 325 326 329 328
310 309 308 307 306 305 303 302 301 301 300 299 299 299 298 299 300 301 302 304 306 309 312 316 323 331 332 332 334 333 327 330 329 328 331 330 329 329 327 322 320 326 327
308 307 306 305 304 303 301 300 298 297 297 298 297 297 297 297 298 300 302 304 306 308 311 315 319 325 331 330 331 332 332 331 331 331 330 329 329 329 329 327 322 322 325
307 306 305 303 302 301 300 298 297 295 295 295 295 296 296 296 297 299 301 302 305 308 311 313 319 324 323 326 328 330 330 330 330 330 330 330 329 328 329 329 324 323 322
306 305 303 302 301 300 298 297 296 294 293 293 293 294 295 295 295 296 299 302 305 308 313 314 317 323 319 320 328 328 329 329 329 329 330 329 329 329 330 330 328 325 325
304 304 302 300 299 298 297 295 294 294 292 291 291 292 293 293 293 295 298 299 301 304 310 318 320 324 323 318 327 329 330 329 325 320 321 328 328 329 329 329 329 328 324
302 301 299 298 297 296 295 294 293 293 292 291 291 291 291 291 292 293 294 296 297 300 306 318 326 328 329 328 328 330 329 328 327 327 325 324 324 327 328 329 328 328 326
299 298 297 296 295 294 293 293 292 292 291 290 290 290 290 290 291 291 292 293 295 297 301 310 320 329 328 326 328 329 328 327 328 327 326 325 326 328 328 328 328 327 327
297 295 294 294 293 293 292 292 291 291 290 290 289 289 289 289 289 289 289 291 292 294 296 300 309 320 327 327 329 329 330 329 329 329 328 328 327 327 327 327 326 326 326
296 295 293 292 292 291 291 291 290 289 289 289 289 289 289 289 288 288 287 288 289 290 292 296 300 303 312 322 321 328 329 328 327 325 326 323 321 321 327 326 326 326 325
294 293 292 291 290 290 290 290 289 288 288 288 288 288 288 289 288 287 286 286 287 287 289 291 293 295 296 296 305 321 326 326 324 323 323 322 321 325 326 326 325 325 324
292 291 291 289 289 289 289 288 288 288 288 288 288 288 288 288 288 287 286 285 285 285 285 287 288 289 290 296 308 316 323 321 320 321 321 318 323 325 325 325 325 325 324
290 290 290 288 288 288 288 287 287 287 287 287 287 287 287 288 288 287 287 286 285 284 284 284 285 286 288 292 301 295 300 310 313 315 312 310 310 313 315 319 320 320 320
288 289 288 288 288 287 287 287 287 287 287 286 286 287 286 286 287 287 287 287 286 285 284 284 284 285 286 289 294 292 289 288 291 294 299 300 300 304 308 310 308 308 308
289 287 288 288 288 288 288 288 287 287 286 286 285 286 285 285 285 285 286 286 285 284 284 284 284 284 284 285 288 292 290 286 285 285 288 291 294 294 299 303 301 298 297
288 288 287 287 287 287 288 288 288 287 287 286 284 284 284 283 283 283 284 284 284 284 283 283 282 283 285 284 283 285 285 284 284 284 284 285 287 291 293 295 294 290 288
288 287 287 287 286 286 286 287 288 288 287 287 285 284 283 282 281 281 282 282 282 282 282 282 282 282 283 284 284 283 283 283 283 283 283 284 284 284 285 290 289 286 286
288 287 286 284 284 284 285 285 286 285 286 286 286 285 283 282 281 280 280 280 280 281 280 280 280 281 282 283 284 284 284 284 283 283 283 283 283 283 283 283 283 286 287
286 285 283 282 282 282 283 283 284 285 284 284 285 285 284 283 281 280 280 279 279 279 280 279 279 279 280 281 283 284 284 284 283 283 283 283 283 282 282 282 283 283 283
283 282 281 281 280 280 281 282 282 283 284 283 283 283 283 283 282 280 279 279 278 278 278 278 279 279 280 281 281 283 283 284 283 283 282 282 282 282 282 282 282 281 280
281 280 280 279 278 279 280 280 281 282 282 283 282 282 282 282 282 281 280 279 280 279 279 279 279 280 280 281 281 281 281 281 281 281 281 280 281 281 281 281 282 282 282
279 278 278 277 276 278 279 280 281 281 281 282 282 281 282 282 282 282 282 280 280 279 278 279 279 279 279 280 280 279 279 279 279 278 278 279 279 279 279 280 280 280 281

GFSMW_925_thetae_114.txt.gz
Theta_e
316 315 313 312 312 311 311 311 311 310 310 309 309 310 310 311 313 314 315 316 317 319 321 322 337 340 339 339 338 338 339 339 339 338 337 337 338 337 336 335 336 334 334
316 313 311 309 308 308 308 307 307 307 306 305 305 305 306 309 310 311 313 314 314 315 317 319 322 331 339 339 338 337 336 337 337 337 335 333 332 335 336 335 335 334 333
315 311 309 307 306 305 304 304 304 304 303 303 302 302 304 304 306 308 310 313 313 313 313 314 315 320 330 338 339 337 336 334 334 335 329 329 332 327 332 334 333 332 332
311 309 307 305 303 303 302 302 301 301 301 300 300 299 299 299 300 301 302 305 309 311 311 311 313 315 318 326 336 337 336 335 328 326 325 322 326 325 326 328 331 332 331
309 307 305 303 302 301 300 299 298 298 298 298 298 298 298 297 298 299 300 302 303 305 309 310 311 313 316 318 332 336 335 334 326 322 322 323 326 327 322 323 327 328 329
307 305 303 302 301 299 299 297 296 295 295 296 296 296 296 296 297 298 300 301 302 304 306 308 309 312 315 318 327 334 333 331 327 324 325 327 328 326 323 320 323 326 326
305 303 302 300 299 298 296 296 295 294 293 293 294 295 295 295 296 297 298 299 300 302 304 306 308 311 313 317 323 331 331 329 326 325 324 325 325 326 327 324 320 321 325
303 302 300 299 298 296 295 294 294 294 292 292 292 293 294 294 294 294 295 297 299 301 302 304 306 308 312 314 319 328 330 329 327 327 327 324 325 328 328 327 322 322 323
301 300 299 297 296 296 294 293 293 293 292 291 291 292 292 292 293 293 294 295 296 298 299 301 303 307 313 315 318 326 328 329 327 326 327 328 328 327 327 327 327 325 325
299 298 297 295 294 294 294 293 292 292 291 291 290 291 291 291 291 292 292 293 294 295 297 299 301 305 312 317 318 321 326 327 325 325 327 327 327 327 327 327 327 326 323
297 296 295 294 293 293 293 292 291 290 290 290 290 290 290 290 290 290 290 290 291 293 294 296 299 304 309 321 321 320 324 327 326 325 325 327 327 327 327 327 327 326 324
295 294 293 292 292 292 292 291 289 289 289 289 289 289 289 289 289 289 288 288 289 290 291 293 295 299 305 318 326 324 323 326 326 326 323 323 326 326 327 327 327 326 324
294 293 292 291 291 291 290 290 289 289 288 289 289 289 289 289 288 287 287 286 287 287 289 290 292 293 296 302 314 325 326 324 326 326 325 323 321 322 324 325 326 326 325
293 292 291 290 290 290 289 288 288 288 288 288 288 288 288 288 288 287 286 286 286 286 286 287 289 290 292 294 301 315 322 324 326 326 326 325 322 322 323 324 321 320 323
292 291 289 289 289 289 288 287 287 288 287 287 288 287 287 288 287 287 287 286 285 285 285 285 286 287 290 290 295 306 315 318 318 327 326 325 325 321 324 323 322 324 324
291 290 289 288 288 288 287 287 287 287 286 286 287 286 286 286 287 287 286 285 285 285 285 285 285 286 287 289 291 296 309 310 304 318 321 318 322 321 321 323 324 324 324
289 289 289 288 288 288 287 287 287 286 286 285 285 286 285 285 285 285 285 285 284 283 283 283 285 286 286 287 289 291 293 293 292 292 297 304 306 312 318 324 324 324 324
288 288 288 288 288 288 287 287 287 286 285 284 284 284 283 283 284 284 284 284 284 283 283 283 283 285 286 285 285 288 290 292 290 288 288 291 295 298 300 305 314 313 312
287 287 287 287 286 286 287 288 287 287 286 284 283 283 282 281 281 282 282 282 282 282 282 282 282 283 285 285 284 284 285 286 287 287 286 287 289 292 293 297 297 300 301
287 287 286 285 285 285 286 287 287 287 287 285 283 283 282 281 280 279 280 280 280 280 280 280 281 282 283 285 285 284 284 284 284 284 285 286 285 285 290 291 290 288 289
287 285 284 284 283 284 284 284 284 284 285 286 284 283 282 281 280 279 278 279 279 279 279 279 280 281 282 283 285 284 284 283 283 283 284 283 284 284 284 285 285 284 285
285 283 283 282 282 282 283 283 284 283 284 283 284 283 282 281 280 279 279 279 279 278 278 279 280 281 281 282 283 284 283 283 283 283 283 283 283 283 282 283 283 284 283
283 282 281 281 280 281 281 281 282 283 282 282 282 282 282 281 280 279 279 279 279 279 279 279 279 280 281 280 281 281 282 282 282 282 282 282 282 282 282 282 282 283 282
281 280 279 279 279 280 280 281 281 282 282 281 281 282 282 282 281 280 279 278 278 279 279 279 279 279 280 280 279 279 279 280 280 280 280 280 281 281 281 282 282 282 282
279 279 278 278 278 279 280 280 281 281 282 282 281 281 281 281 281 280 280 278 277 279 279 280 279 279 279 280 279 278 278 278 278 278 278 278 278 279 279 280 280 281 281
277 276 276 276 277 278 279 280 279 280 280 281 281 280 280 280 280 280 280 279 277 277 278 278 279 277 277 277 278 278 277 277 276 276 276 276 276 276 277 277 278 279 280

GFSMW_925_thetae_117.txt.gz
Theta_e
312 311 310 308 307 306 306 306 306 306 308 309 309 308 308 310 311 312 311 312 313 314 314 315 316 319 329 337 337 336 334 334 336 337 337 335 336 336 337 337 337 336 335
311 309 306 304 303 303 302 302 302 302 302 303 304 306 307 306 308 309 310 309 310 311 312 313 314 314 316 325 334 337 336 336 336 335 334 333 332 334 334 334 334 335 335
311 308 304 302 301 300 300 299 300 299 300 300 302 305 306 306 305 306 307 307 308 308 308 309 311 312 313 315 320 332 335 335 335 335 332 327 333 328 329 332 330 333 333
307 305 302 301 300 298 297 296 297 297 298 299 299 298 298 298 298 299 300 303 304 306 306 307 307 309 311 313 315 318 329 334 331 330 333 329 326 327 324 325 330 330 333
305 303 302 299 298 297 296 295 295 296 296 296 296 296 297 297 297 298 298 299 301 303 306 306 306 308 310 312 314 316 319 332 333 329 324 322 321 323 321 323 324 327 330
303 302 300 298 296 295 295 295 294 293 294 294 294 295 295 295 296 296 297 297 298 299 301 303 304 306 308 310 313 315 320 327 330 330 328 325 323 323 322 322 322 324 327
300 299 299 297 296 294 293 294 293 292 292 292 292 293 294 294 294 295 295 295 297 298 299 300 301 303 305 308 310 312 315 323 328 328 327 326 325 325 324 324 324 324 325
297 297 296 295 295 294 293 292 292 292 291 291 291 292 292 292 293 293 293 294 295 295 296 297 298 300 302 305 308 312 314 317 325 326 325 324 325 326 326 325 324 323 322
296 294 293 293 293 293 292 291 291 291 291 290 291 291 291 291 291 291 292 292 292 293 294 294 296 298 300 304 308 313 315 317 323 325 325 324 325 325 325 326 325 324 325
296 295 293 292 292 292 292 290 290 290 290 290 290 290 290 290 290 289 289 289 289 290 291 293 294 296 299 301 303 308 316 317 323 324 325 326 325 324 324 326 326 325 324
294 293 292 291 291 291 290 289 289 289 289 289 289 289 289 289 289 288 287 287 288 288 289 290 292 293 295 297 299 304 315 318 319 324 325 325 325 325 326 326 325 325 325
293 292 291 291 291 290 289 288 288 288 288 289 289 289 289 288 288 287 287 286 286 287 287 288 289 290 291 293 294 297 306 318 321 323 324 324 324 324 324 325 325 325 324
293 291 290 290 289 289 288 287 287 287 288 288 288 288 288 288 288 287 287 286 286 286 286 287 287 288 289 290 291 293 300 308 320 323 324 324 324 324 325 326 325 324 324
292 291 290 289 289 288 287 287 287 287 287 287 287 286 286 287 287 286 285 285 284 285 285 286 287 287 288 288 289 291 298 304 312 320 324 324 324 323 323 325 325 324 324
291 290 289 289 288 288 287 287 287 286 286 286 286 285 285 285 285 285 285 284 284 284 284 284 286 286 287 286 287 289 291 294 299 308 313 316 320 324 323 323 324 323 323
290 289 288 288 288 288 287 287 286 285 285 285 285 284 284 284 283 284 283 284 283 283 283 283 284 285 286 286 286 287 288 289 290 292 298 300 303 314 321 323 323 323 320
288 288 288 288 288 287 287 287 286 285 284 283 283 282 282 282 282 282 282 281 282 282 282 282 282 284 286 286 285 285 286 286 287 288 291 294 293 295 309 319 321 322 322
287 287 287 286 286 286 287 286 286 285 284 283 283 282 280 280 280 280 280 280 280 280 280 281 281 282 284 285 285 285 284 284 285 285 286 289 291 293 296 299 306 304 304
286 286 286 285 285 286 286 287 286 286 284 283 282 282 280 279 279 279 279 279 279 279 280 280 281 281 282 284 284 284 284 284 284 284 284 285 286 288 294 293 293 294 291
287 285 284 284 284 284 284 284 284 284 285 283 282 281 281 279 279 279 279 279 279 279 279 280 280 280 281 282 283 283 283 283 283 283 283 283 284 284 286 289 289 287 287
284 283 283 282 282 283 283 283 283 283 283 283 281 281 280 280 279 279 279 279 279 279 279 279 280 280 279 280 282 282 281 281 282 282 282 283 283 283 283 283 285 283 286
283 282 281 281 281 282 282 282 283 282 282 282 282 281 280 279 279 278 278 278 279 279 279 279 279 279 279 279 279 280 280 280 280 280 280 281 281 282 282 282 282 283 284
282 281 280 280 280 281 281 281 282 281 281 281 281 281 281 280 279 278 277 278 279 279 279 278 278 278 278 279 278 278 278 278 278 278 279 279 280 280 280 281 281 282 282
280 279 279 279 279 279 280 280 281 281 281 281 281 281 281 280 280 278 277 277 278 278 279 277 276 276 276 278 278 277 277 276 277 277 277 277 277 278 278 279 279 280 280
278 279 278 278 278 279 279 280 281 281 281 280 280 279 279 279 279 278 277 276 276 277 277 277 275 275 275 276 277 276 276 276 275 275 275 275 275 276 276 277 277 278 279
276 277 276 276 276 278 279 279 279 280 279 279 278 278 278 277 277 277 276 276 276 276 275 276 275 274 274 274 274 274 274 274 273 272 272 272 273 274 274 275 275 276 276

GFSMW_925_thetae_120.txt.gz
Theta_e
307 303 302 301 302 302 302 301 302 303 304 306 307 308 309 309 310 310 310 310 311 311 311 312 313 313 314 317 328 335 334 332 332 334 332 333 332 331 335 335 334 335 335
305 303 300 299 297 297 297 297 298 298 300 300 301 303 305 305 306 306 306 307 308 309 310 310 310 311 312 313 316 326 335 333 332 332 328 327 326 326 332 331 329 333 332
303 302 300 299 298 296 296 295 295 296 296 298 300 303 302 302 301 303 304 304 305 305 306 307 308 309 310 311 313 315 320 333 334 334 332 330 333 328 328 326 327 332 332
303 301 299 297 295 296 296 295 294 296 293 294 295 297 297 298 298 298 299 300 301 303 303 305 306 306 307 309 311 313 314 319 330 332 333 332 328 329 327 327 331 330 332
301 299 299 297 295 294 294 294 294 293 293 293 293 294 295 296 296 296 296 297 298 299 300 302 303 305 306 308 309 311 312 315 319 328 328 327 327 325 324 325 323 328 330
299 298 296 296 295 294 293 293 292 292 293 292 292 292 293 294 295 295 295 295 296 297 298 299 300 301 303 305 307 310 312 313 315 320 327 326 326 322 322 320 321 325 327
298 297 296 294 294 293 292 292 291 291 291 291 291 292 292 292 293 293 293 294 294 294 295 295 297 298 299 302 303 305 308 311 313 316 322 326 326 327 325 325 321 319 322
296 295 294 293 293 293 292 291 290 290 291 291 291 291 291 291 291 291 291 291 291 291 292 293 294 296 297 299 301 304 307 310 313 315 317 325 326 326 325 324 324 321 320
296 294 294 293 292 292 291 289 289 290 290 290 290 290 290 290 289 289 289 289 289 290 290 291 292 294 295 296 299 301 304 308 312 315 317 323 325 325 325 324 324 324 326
296 294 293 292 291 291 289 289 289 289 289 289 290 289 289 289 288 288 287 287 288 288 288 289 290 291 292 293 294 296 298 301 307 315 317 321 323 323 323 325 325 324 325
294 292 291 291 291 289 289 288 288 288 288 289 289 289 288 288 288 288 287 287 287 287 287 288 289 290 290 291 291 293 295 297 303 313 317 321 323 324 323 324 324 325 324
292 291 290 290 290 288 288 288 288 288 288 288 287 287 287 287 287 286 285 285 285 286 286 287 288 288 288 289 289 291 292 295 299 305 314 319 323 323 323 323 323 324 325
291 289 289 289 289 288 288 288 287 287 287 287 286 286 286 286 286 285 284 284 284 285 285 286 287 288 288 288 288 290 291 293 296 299 306 319 322 322 322 323 323 324 324
291 289 289 289 289 288 288 287 287 286 286 286 285 285 285 284 284 284 284 283 283 283 283 284 286 287 287 287 287 288 289 289 290 292 294 297 301 304 315 323 323 324 324
290 289 288 288 288 287 287 286 285 284 284 284 283 283 283 283 282 282 282 281 281 281 281 283 284 285 286 286 286 286 286 287 287 288 289 291 292 298 304 309 323 324 325
290 288 288 288 288 288 287 286 285 284 283 283 282 281 281 281 281 281 281 281 280 280 280 281 282 284 285 285 285 285 285 285 285 286 286 287 289 292 298 303 317 321 323
289 288 288 287 287 287 287 286 285 284 283 283 282 280 280 279 279 280 280 280 279 279 280 280 281 282 283 284 285 284 284 284 283 284 284 285 285 286 291 295 297 307 307
287 287 287 286 286 286 286 286 285 283 283 282 281 280 279 279 279 279 279 279 279 279 279 279 279 280 281 283 283 283 283 283 283 283 283 284 285 285 287 291 292 292 296
286 286 285 284 284 285 285 285 285 284 282 281 281 280 279 279 279 279 279 279 278 278 278 279 279 279 279 282 282 281 281 281 282 282 282 283 283 284 284 285 287 288 291
284 283 283 284 284 284 284 283 283 283 282 281 280 280 279 278 278 278 278 279 278 278 278 278 278 279 279 280 280 280 279 279 280 280 280 281 282 283 283 283 283 284 283
283 283 283 282 283 283 282 282 282 282 282 281 280 279 279 278 277 278 278 278 278 277 277 276 276 277 278 278 279 279 278 277 278 278 279 279 281 281 282 282 282 282 282
282 282 281 281 282 282 282 282 281 281 281 281 281 280 279 278 277 277 277 277 278 277 276 275 275 275 276 277 277 278 277 277 276 277 277 278 279 279 280 280 280 280 281
281 281 280 280 280 281 281 281 281 281 281 280 280 280 280 278 277 276 276 276 277 276 275 274 274 274 274 275 276 276 276 275 274 275 275 276 276 276 276 278 278 279 279
280 280 280 279 278 279 280 280 281 281 280 280 279 279 279 277 277 276 276 276 276 276 275 273 273 273 273 274 274 274 274 273 272 273 272 272 273 273 274 275 275 276 277
279 279 278 278 277 278 279 280 280 280 279 279 278 278 277 277 276 275 276 275 275 275 275 274 273 273 273 273 273 273 273 272 270 270 270 270 270 271 271 272 273 273 274
278 277 277 277 277 278 278 279 279 279 278 277 277 277 276 276 275 275 274 275 275 274 274 274 274 273 273 272 272 271 271 270 269 268 268 268 268 269 269 269 270 270 271

GFSMW_925_thetae_123.txt.gz
Theta_e
303 302 300 299 299 298 298 297 297 298 299 300 302 305 305 306 304 304 305 307 308 310 311 311 312 313 314 316 318 325 331 335 337 337 334 328 332 329 331 330 331 332 333
303 300 298 297 298 298 297 297 296 296 297 298 299 300 301 303 303 301 302 302 303 305 306 308 308 308 310 313 315 317 322 332 333 333 333 332 331 328 330 332 332 329 331
302 300 298 297 296 296 295 295 295 294 294 296 298 299 299 300 301 300 301 301 301 302 303 305 307 307 307 309 312 314 318 323 331 332 331 330 331 332 328 327 330 331 332
300 299 298 297 296 295 295 295 294 293 294 294 295 297 296 296 297 298 298 299 299 300 301 302 303 303 305 307 308 310 312 316 321 327 332 332 330 334 334 329 330 331 331
300 299 299 298 297 295 295 293 294 293 293 293 294 294 294 294 295 296 297 297 298 298 298 298 299 300 301 303 306 308 310 311 314 319 326 331 331 331 329 333 331 330 330
300 298 297 296 296 294 293 294 293 292 292 293 292 292 292 293 293 293 294 294 295 295 295 295 296 297 298 299 301 303 306 310 312 314 317 321 329 329 329 328 330 330 331
299 297 296 295 294 294 292 292 292 292 291 292 292 291 292 292 292 291 291 292 292 293 293 293 294 295 296 297 299 300 303 305 308 311 314 316 319 327 326 327 330 332 329
297 296 295 294 293 292 291 291 291 291 291 291 291 291 291 291 290 290 290 290 290 291 291 291 292 292 294 295 296 298 301 304 306 309 312 315 317 320 325 326 327 331 331
297 295 294 293 292 291 291 290 290 290 290 290 291 290 290 290 290 289 289 289 289 290 290 290 291 291 292 292 294 295 298 299 301 304 306 313 315 318 321 325 325 326 329
295 294 293 292 292 290 290 289 289 290 289 289 289 289 289 289 288 288 287 287 288 288 288 289 290 290 291 291 291 293 294 296 298 300 302 308 316 318 320 325 324 325 325
295 293 292 291 291 290 289 289 289 289 289 288 288 288 287 287 287 286 286 286 286 286 287 288 289 289 289 289 290 291 294 294 297 299 302 306 312 318 320 322 323 324 324
294 292 291 290 290 289 289 289 288 288 288 288 287 287 287 287 286 286 285 285 285 285 285 286 287 287 288 288 289 291 291 292 293 295 296 299 299 310 320 322 323 323 323
292 291 291 290 289 289 288 288 287 287 287 286 286 286 286 285 285 285 285 284 284 284 284 285 285 287 287 287 288 288 289 289 290 290 292 293 293 293 297 305 318 323 322
292 291 290 289 289 288 288 287 286 285 285 284 284 284 284 284 284 284 283 283 283 283 283 283 284 285 285 286 286 287 287 288 287 287 288 289 288 289 290 295 300 308 322
291 290 290 289 288 287 287 286 285 285 284 284 283 282 282 282 282 282 282 282 282 282 282 282 282 284 284 285 285 286 286 286 286 286 286 286 287 287 290 292 293 296 302
290 290 289 288 288 287 287 286 285 285 284 283 282 281 281 281 280 280 281 280 280 281 281 281 281 282 283 284 283 284 285 285 285 285 284 285 285 286 288 290 291 292 290
290 289 288 288 287 287 286 286 285 284 283 282 281 281 280 280 280 280 280 279 279 279 280 280 280 281 281 282 282 282 283 283 283 283 283 284 284 284 285 287 288 288 291
289 289 287 287 286 286 287 286 284 283 283 282 281 280 280 279 279 279 278 278 279 278 278 278 279 279 280 281 280 281 281 281 281 281 282 283 283 283 283 284 284 285 285
288 287 286 285 284 284 285 285 284 282 282 281 280 280 279 278 278 278 278 278 278 278 277 277 277 278 278 279 279 279 280 280 280 280 280 281 282 282 282 282 283 283 283
285 284 283 283 283 284 283 283 283 282 281 281 280 280 279 278 277 277 278 278 277 277 277 276 276 276 277 278 278 278 278 278 278 279 278 279 280 281 281 280 281 282 282
284 283 283 283 282 282 282 282 282 281 281 281 280 279 279 278 277 277 277 278 276 275 275 275 275 275 275 276 277 276 276 276 277 276 276 277 278 278 279 279 279 279 280
284 283 282 282 282 282 282 281 281 281 281 280 280 279 278 277 277 277 277 277 276 275 275 275 275 274 274 275 275 275 274 273 274 274 274 275 275 275 276 276 277 277 277
283 282 282 282 281 281 282 282 282 281 281 280 279 279 278 277 277 276 277 276 276 275 275 275 274 274 274 273 273 273 273 272 271 272 271 272 272 272 273 273 274 274 274
282 281 281 281 280 280 280 281 281 281 280 279 279 279 278 277 276 276 276 276 276 276 275 274 275 274 273 273 272 272 272 270 270 270 270 270 270 270 270 271 271 272 272
280 280 280 280 279 279 279 279 280 279 279 279 278 278 277 276 276 275 276 275 275 275 275 274 273 273 273 272 272 271 271 270 268 269 269 268 269 269 269 269 269 270 270
280 279 278 278 278 278 278 278 279 278 278 278 277 277 276 276 275 275 274 273 274 274 273 273 273 273 272 271 271 270 270 269 268 268 268 268 267 267 267 267 267 268 268

GFSMW_925_thetae_126.txt.gz
Theta_e
307 305 303 303 304 304 303 301 300 298 299 302 304 306 307 311 310 308 308 308 309 310 312 314 316 317 318 321 323 325 329 334 335 336 337 337 337 334 336 331 328 329 334
308 305 304 303 302 302 301 300 299 298 298 298 299 303 306 307 307 306 306 306 306 307 308 308 309 310 312 314 317 320 323 326 332 335 335 335 333 332 333 327 326 327 331
307 305 303 303 303 302 302 301 299 298 297 298 299 301 303 304 304 304 304 303 304 303 303 303 304 306 307 310 311 312 314 320 323 331 335 335 336 333 329 327 329 330 331
305 303 304 302 302 300 300 300 299 299 298 298 298 300 303 303 301 302 301 301 301 300 300 300 301 303 303 305 306 309 311 313 316 321 327 333 332 333 334 333 332 332 333
304 303 301 299 298 297 296 296 298 297 297 297 296 298 298 299 300 299 299 298 298 298 298 298 298 299 300 301 302 303 305 308 312 315 319 323 329 332 335 334 334 333 333
303 301 299 298 298 298 298 297 297 296 296 294 295 295 295 296 296 296 296 296 296 296 296 295 296 297 298 299 299 300 302 304 307 310 314 317 321 328 330 333 332 331 331
301 300 299 300 299 297 297 297 297 296 295 294 294 293 293 294 294 293 293 293 292 293 294 294 294 295 295 296 297 298 301 303 305 307 310 312 316 317 322 324 331 331 327
300 300 298 298 296 296 294 294 295 295 294 293 293 293 292 292 292 291 291 291 292 292 291 292 293 293 294 295 295 297 299 302 303 303 304 308 312 315 318 321 326 331 329
301 299 298 296 295 295 293 292 293 293 292 292 292 291 291 291 290 290 290 290 290 290 290 290 291 291 292 293 293 295 296 297 299 301 302 303 305 309 314 316 322 326 331
300 299 298 296 294 293 292 292 291 291 291 291 290 290 290 289 289 289 289 289 289 288 288 289 290 290 290 291 292 293 294 295 295 297 300 302 303 305 308 316 318 323 326
302 300 297 296 294 293 292 291 291 290 290 290 290 289 289 289 288 288 288 288 288 288 288 288 289 289 289 289 290 291 291 292 292 292 295 298 296 297 301 310 318 322 323
300 298 296 295 293 292 291 291 290 290 289 289 289 289 288 288 288 288 287 287 287 287 287 287 288 288 289 289 289 289 289 290 289 290 291 291 291 292 293 296 301 308 322
299 298 296 294 292 291 290 290 289 289 289 288 288 288 288 288 287 287 287 286 287 287 286 286 287 287 288 288 288 288 288 288 288 288 288 288 288 289 290 292 296 299 303
298 298 295 293 291 290 290 290 289 289 288 287 287 287 286 286 286 286 286 286 286 286 286 286 286 287 286 286 287 288 288 288 287 287 287 287 287 288 288 291 292 294 296
298 296 295 292 290 289 289 289 289 288 288 287 286 285 285 284 284 284 284 284 285 284 284 285 286 286 284 283 284 287 287 287 286 286 286 286 286 286 286 287 289 288 290
297 295 293 291 290 289 289 289 288 287 286 285 285 284 284 284 283 284 284 283 283 283 283 283 284 284 283 281 282 285 285 285 284 285 285 285 284 284 286 285 285 285 286
296 293 292 290 289 289 289 289 288 287 285 284 284 283 283 282 282 282 282 282 282 281 281 281 282 281 281 280 280 283 283 283 283 283 282 283 283 283 285 286 285 284 284
294 292 290 289 289 288 288 288 287 286 285 284 282 282 282 281 281 281 281 281 281 280 280 279 280 280 279 279 279 281 282 282 281 281 280 281 281 281 282 284 284 284 284
292 290 289 288 287 287 287 287 285 285 284 283 282 281 280 280 280 280 280 280 280 280 279 278 278 278 278 278 277 280 281 281 281 280 279 278 279 280 280 281 282 282 282
289 288 287 286 286 286 286 286 284 284 282 282 282 281 280 279 279 280 280 279 279 279 279 278 278 277 277 276 276 276 278 280 280 279 279 276 277 277 278 279 279 279 280
288 286 286 285 284 284 284 284 284 283 283 282 281 280 280 279 279 279 279 279 278 278 278 278 278 277 276 276 275 275 275 277 277 277 276 275 275 275 276 276 276 276 279
286 286 285 285 285 285 284 283 283 282 282 282 281 279 279 279 279 279 279 279 279 278 279 278 278 277 277 275 275 274 273 273 275 274 274 274 273 274 274 274 275 275 277
286 286 286 286 285 285 285 284 283 282 282 281 280 279 279 279 279 279 279 279 279 278 278 278 278 277 276 275 274 274 273 272 273 273 272 272 273 273 273 273 273 274 274
286 287 286 286 285 284 284 284 283 283 282 281 281 280 279 279 279 279 278 278 277 278 278 277 277 276 275 274 273 273 273 273 272 273 273 272 272 272 272 272 272 272 272
286 286 286 285 284 283 283 282 282 282 281 281 280 280 279 278 278 276 276 277 275 275 276 276 275 274 274 272 271 271 271 271 271 273 273 272 272 272 272 271 271 271 271
285 284 284 283 282 282 282 282 281 281 281 280 280 279 279 278 277 277 276 273 273 273 273 273 273 274 272 271 271 271 271 271 271 272 272 272 271 271 271 271 271 271 270

GFSMW_925_thetae_132.txt.gz
Theta_e
313 312 311 310 310 309 308 307 307 306 307 307 307 308 309 310 308 307 308 308 308 307 306 307 308 308 309 311 312 312 313 315 318 321 325 329 329 329 334 333 334 333 332
314 312 311 310 309 307 307 307 306 305 305 305 306 308 308 309 308 307 306 305 305 305 304 303 304 304 306 307 307 308 309 311 313 316 320 327 328 330 332 333 333 335 334
314 312 310 308 306 306 305 305 304 304 303 303 304 305 307 307 307 307 306 305 304 303 302 301 302 302 303 303 304 305 305 307 308 311 315 322 325 321 324 327 331 332 332
311 311 308 306 306 305 304 304 304 303 302 301 301 302 302 303 302 303 302 303 303 301 300 299 299 300 300 301 301 302 302 303 305 307 311 310 313 321 322 323 323 327 332
311 309 306 306 305 304 304 304 303 302 301 300 299 299 299 299 299 298 298 298 298 298 296 296 297 297 298 298 298 299 300 301 303 305 307 308 311 312 317 320 321 321 324
309 307 306 306 304 303 302 301 302 300 299 298 298 297 297 297 297 296 296 294 295 294 294 293 294 295 295 296 296 297 298 299 301 303 305 306 309 311 313 314 314 316 317
308 307 307 305 303 302 300 300 300 299 297 296 296 295 295 295 295 294 293 293 293 292 292 292 292 292 293 294 294 295 297 297 297 298 300 301 303 306 307 309 312 314 315
309 308 306 305 302 301 298 298 298 298 296 295 295 294 293 293 293 292 292 292 291 291 291 291 291 292 292 292 293 294 294 294 295 295 295 296 299 300 302 305 307 310 310
308 307 305 303 302 299 297 296 296 296 295 294 294 293 293 292 292 291 291 291 290 290 290 290 291 291 291 291 292 292 291 291 291 291 292 292 292 294 295 296 298 303 308
308 306 305 303 300 298 296 295 295 294 294 293 293 293 292 292 291 291 290 290 289 289 290 290 290 289 289 291 290 291 290 290 289 290 289 289 289 290 291 292 294 296 300
307 306 305 302 300 298 296 295 294 294 293 293 292 292 292 292 291 290 290 290 289 289 289 290 289 288 288 289 291 290 289 289 289 289 288 287 288 289 289 290 293 294 296
307 306 305 302 299 298 296 294 294 294 293 293 293 293 293 292 291 290 290 289 289 289 289 289 288 287 286 287 289 290 290 289 289 289 287 286 287 288 288 289 289 289 291
308 307 304 301 299 297 296 294 294 294 294 294 293 292 291 290 290 289 289 288 288 288 288 287 286 284 284 285 287 288 288 288 287 287 286 285 285 286 287 287 287 287 289
308 307 304 301 298 296 295 294 294 293 293 293 292 291 290 289 289 288 288 287 287 286 287 285 283 282 282 283 285 287 286 285 285 285 285 283 283 284 287 287 286 286 287
308 307 304 300 297 296 295 294 294 293 293 292 290 289 288 288 287 287 286 286 285 285 285 284 282 280 280 282 283 285 284 284 282 282 282 281 281 282 285 286 285 285 285
308 306 304 299 296 295 294 294 293 292 291 290 289 288 287 286 285 285 285 284 283 282 282 282 281 279 279 281 282 284 284 283 281 279 279 279 279 279 282 283 283 283 283
307 305 302 298 296 295 294 293 292 291 289 288 287 286 285 284 284 284 283 282 282 281 280 280 280 278 278 279 281 283 282 281 280 277 277 277 277 278 278 279 280 281 282
306 303 299 296 294 293 293 292 291 289 288 286 285 285 284 284 283 282 282 282 281 280 280 279 278 278 278 278 279 281 281 281 279 278 276 276 276 277 277 277 277 278 280
302 298 296 293 292 292 292 291 290 288 286 284 284 283 282 282 282 281 281 281 282 281 280 279 279 277 277 277 277 278 279 279 278 277 276 276 276 277 277 275 276 276 277
296 294 293 292 290 290 290 290 289 287 286 284 283 282 281 281 281 281 281 281 281 281 281 279 278 278 276 277 277 275 276 277 276 276 275 276 276 277 276 275 275 275 276
293 291 290 289 289 289 289 288 286 284 284 284 283 282 282 282 282 281 281 281 282 282 282 281 278 276 276 276 276 276 275 276 276 275 275 276 276 276 276 275 275 275 275
291 289 289 288 288 288 287 285 285 285 283 282 282 282 282 282 282 282 282 282 282 281 281 280 278 276 274 275 275 276 275 275 276 276 275 276 276 275 275 275 274 273 273
289 289 288 288 288 288 286 285 284 284 282 282 281 281 282 282 281 281 281 281 281 281 280 278 277 275 273 273 274 274 275 274 275 276 275 275 275 274 274 274 274 272 272
289 289 289 289 289 288 287 285 284 284 283 283 282 282 282 281 281 279 277 277 277 278 278 277 275 275 273 274 274 274 274 274 275 275 275 275 274 274 273 273 273 272 272
289 290 290 290 289 288 287 286 286 285 285 283 282 281 280 278 277 278 276 274 274 275 274 275 274 273 273 274 274 275 275 275 275 275 275 274 274 274 273 272 272 272 271
290 290 290 289 288 287 287 286 285 285 284 283 282 282 281 280 278 276 275 275 274 274 274 273 273 273 273 274 274 274 275 275 275 274 274 273 273 273 272 271 271 271 271

GFSMW_925_thetae_135.txt.gz
Theta_e
310 310 310 309 308 307 306 305 304 304 304 305 306 307 308 308 307 306 305 304 304 303 302 303 303 303 305 305 306 306 307 309 310 315 314 315 317 324 327 330 332 332 333
310 309 308 307 306 305 305 304 304 303 302 303 304 304 306 305 305 304 304 303 302 301 301 300 301 301 302 303 302 303 304 306 307 310 312 317 320 323 321 322 329 329 326
310 309 306 306 306 305 304 304 303 301 301 300 301 303 304 303 302 301 301 300 299 299 298 298 298 299 299 300 300 301 301 303 304 305 309 315 316 313 316 317 321 319 321
308 306 305 305 305 304 304 303 302 300 299 299 299 298 299 298 298 297 297 297 297 296 296 295 296 296 297 297 297 298 299 300 302 304 306 306 308 314 314 315 315 318 317
306 304 304 305 304 303 303 302 300 299 298 297 297 296 296 296 296 295 294 294 294 293 293 292 293 294 295 295 295 296 297 298 300 302 303 305 306 308 312 314 312 311 312
305 305 305 304 303 302 301 301 299 297 297 296 295 295 295 295 294 293 293 292 292 292 291 292 292 292 293 293 294 295 296 297 298 298 300 302 304 306 307 309 307 309 309
305 304 304 303 301 300 300 299 298 296 295 295 294 294 294 293 293 292 292 291 291 291 290 291 291 292 292 292 293 294 294 294 295 295 295 297 300 299 302 305 306 306 306
306 304 303 302 299 298 298 297 296 295 294 294 293 293 292 292 292 291 291 291 290 290 290 291 290 290 291 291 292 291 292 291 292 292 292 293 293 293 295 298 299 301 305
306 304 303 301 298 297 296 296 295 294 294 293 293 292 292 291 291 290 290 289 289 290 290 289 289 289 290 291 291 290 290 290 290 289 289 289 290 291 291 293 294 298 302
305 303 302 299 297 296 295 295 294 294 293 293 293 292 292 291 290 290 290 289 289 289 290 288 287 288 289 290 291 290 289 289 289 288 287 288 288 289 289 290 292 294 296
304 303 302 298 297 296 295 294 294 293 293 293 292 292 292 291 290 290 289 289 289 289 288 285 285 286 287 288 289 289 288 288 288 286 285 286 287 288 288 288 288 289 290
305 303 301 298 297 295 294 294 294 293 293 293 293 292 291 290 290 289 288 288 288 287 285 284 283 284 286 287 287 287 286 286 286 285 283 283 284 286 287 287 287 287 289
305 303 300 298 296 295 294 294 294 294 294 293 292 290 289 289 289 288 287 286 286 286 284 282 281 282 284 285 285 284 284 283 283 283 281 281 282 284 286 286 285 286 287
306 305 300 298 296 295 294 294 293 294 293 292 290 289 289 288 287 287 286 285 285 284 281 280 280 280 282 284 285 284 282 279 280 280 279 279 280 282 283 284 284 284 285
307 305 299 296 295 295 294 294 293 293 292 291 289 288 287 287 286 285 284 283 283 282 281 279 278 279 281 283 283 282 281 278 277 277 277 278 279 280 281 281 282 283 283
307 306 299 296 295 294 294 294 293 292 291 289 287 286 285 285 284 284 283 282 280 280 280 278 278 278 280 282 283 281 280 278 276 276 276 277 278 276 278 279 279 280 282
307 305 298 296 295 294 294 294 292 290 288 287 286 285 284 284 283 282 281 280 279 278 278 277 278 278 278 280 281 281 278 277 277 276 276 277 277 276 275 276 277 277 279
306 302 297 295 294 294 293 292 290 288 287 286 285 284 283 282 282 282 281 280 279 279 278 277 277 278 278 278 279 278 277 275 275 276 276 276 277 277 275 275 275 275 276
301 297 295 293 293 293 293 291 288 286 285 284 283 283 282 281 281 281 281 281 280 279 278 277 276 277 278 277 276 276 276 275 275 276 277 276 277 277 275 274 273 273 274
295 293 292 292 292 292 292 289 286 285 284 283 282 282 281 281 281 281 281 281 281 279 277 276 275 275 277 277 277 275 276 275 275 275 276 276 276 276 276 273 273 272 273
292 292 291 291 290 291 290 287 285 284 284 283 282 281 281 281 281 281 281 282 282 280 277 275 274 274 275 276 276 276 275 276 275 275 275 276 275 276 275 273 273 272 272
291 290 290 290 290 289 288 285 285 284 283 283 282 282 282 282 281 282 282 281 281 279 277 275 273 273 274 275 275 276 276 276 275 275 275 275 274 274 274 273 272 271 271
290 289 289 289 288 287 286 284 284 283 282 282 282 282 282 282 281 281 280 280 280 277 276 275 273 273 274 274 274 275 275 275 275 275 274 274 273 272 272 272 271 270 270
289 289 289 288 288 286 285 285 283 283 281 281 281 282 281 280 279 279 278 278 277 277 275 274 273 273 274 274 275 275 275 275 274 274 273 272 272 271 271 270 270 270 270
289 289 288 288 288 286 285 284 284 282 281 282 282 281 280 279 277 275 275 275 275 275 275 273 273 273 274 274 275 276 275 274 273 272 271 271 270 270 269 269 269 269 269
289 289 289 288 288 287 285 284 284 283 283 281 281 280 279 278 276 276 275 275 275 275 274 274 273 274 274 274 274 275 274 273 272 271 270 270 269 269 268 268 268 268 267

GFSMW_925_thetae_141.txt.gz
Theta_e
307 305 305 305 304 304 304 304 304 304 305 306 305 305 301 300 300 300 300 300 299 299 299 299 299 299 299 298 299 299 300 303 303 305 306 308 317 320 320 322 327 328 328
307 305 304 304 305 303 303 302 301 302 303 305 304 303 300 298 298 297 297 297 296 296 296 296 296 296 296 297 297 298 298 300 301 302 305 308 311 315 316 316 316 315 319
307 305 303 303 303 302 302 301 300 300 300 301 302 300 299 297 295 295 295 294 293 293 294 294 294 294 295 295 296 296 297 298 300 301 304 307 307 306 309 312 313 311 309
307 305 303 302 303 302 301 300 299 298 298 298 299 299 297 295 293 293 293 293 292 292 292 293 293 293 293 294 295 295 296 297 299 300 302 302 304 307 306 307 310 309 307
306 304 302 302 302 301 300 299 298 296 296 296 296 296 294 293 293 292 292 292 292 292 292 292 292 293 293 293 294 294 294 295 296 297 298 299 301 302 306 307 305 305 305
305 303 302 302 300 299 299 298 297 295 295 295 294 294 293 292 292 291 291 291 290 291 291 291 291 292 292 292 292 292 292 292 293 293 294 295 298 299 301 303 302 301 303
304 302 301 299 298 298 297 297 296 294 294 294 293 293 292 292 291 291 290 290 290 289 288 290 290 291 291 291 290 291 291 290 290 290 290 291 292 292 294 296 298 299 299
304 302 300 298 297 297 296 296 295 294 293 293 292 292 291 291 291 290 290 290 290 289 287 289 290 290 290 290 290 290 290 288 287 287 287 288 289 290 290 292 293 295 298
304 302 300 298 296 296 296 296 295 294 293 292 292 292 291 291 290 290 289 289 290 288 286 288 289 289 289 289 288 287 288 286 285 285 285 286 287 288 288 289 289 292 296
303 301 299 297 295 296 296 295 295 293 293 292 292 292 291 291 290 289 289 288 288 286 285 287 288 288 287 287 286 286 285 284 283 283 284 285 286 286 287 287 287 289 290
303 300 298 296 295 295 295 294 294 293 293 292 292 291 290 289 289 289 288 287 286 285 283 286 286 286 285 285 284 283 283 282 281 281 282 282 284 284 285 285 285 286 287
302 298 297 295 294 293 294 294 293 293 293 292 292 291 290 289 287 287 286 285 285 283 282 284 285 285 284 283 281 281 281 280 279 280 280 280 281 282 282 282 283 284 285
299 297 296 295 294 293 293 293 293 293 293 292 291 290 289 288 286 286 285 284 283 281 281 283 284 284 283 281 278 279 278 278 278 279 278 279 280 280 281 281 281 282 284
300 298 297 295 294 293 293 293 293 293 292 291 289 288 287 287 286 285 284 283 282 280 281 282 282 283 282 280 277 277 277 278 278 279 278 278 279 279 280 279 280 280 280
302 299 297 296 295 294 293 293 293 292 292 289 288 287 286 286 284 284 283 282 280 279 280 281 281 282 281 279 277 277 277 277 277 278 278 277 278 278 279 278 278 277 277
304 302 300 297 295 295 294 293 292 291 290 289 287 286 285 284 283 282 281 281 278 278 280 280 280 281 280 279 278 277 276 276 276 277 277 276 275 275 276 276 276 277 275
306 304 301 299 297 295 294 293 292 290 289 288 286 285 284 283 281 280 279 278 278 278 278 279 279 279 279 277 277 277 276 276 276 276 276 275 274 274 274 273 272 273 274
307 307 303 298 296 294 293 292 291 288 288 286 286 285 284 282 280 278 277 277 277 278 278 277 278 278 278 277 276 276 276 276 276 276 276 275 274 273 272 272 270 270 271
309 307 303 296 294 294 293 291 288 288 287 285 285 284 283 281 279 278 277 276 277 277 277 277 277 277 277 276 276 275 275 275 276 276 276 275 274 273 272 270 270 269 269
305 298 296 295 294 293 291 289 288 286 285 285 284 283 282 281 279 278 277 276 276 276 276 277 277 277 277 276 275 275 275 274 274 274 275 276 275 274 272 270 269 268 268
295 295 294 293 292 290 289 288 286 285 285 285 283 282 282 281 280 278 277 276 275 275 275 276 276 277 277 277 276 275 274 274 273 273 273 273 274 273 272 270 269 268 267
293 293 292 290 289 289 288 286 285 285 285 284 283 281 281 281 280 279 277 275 275 274 274 275 275 276 276 276 277 276 274 274 273 272 271 271 271 271 271 270 269 267 267
292 292 291 289 288 288 287 285 283 285 283 282 281 280 280 281 281 279 277 275 274 274 274 274 274 275 275 275 276 275 273 273 272 272 270 269 268 268 268 268 267 266 266
291 291 289 288 287 287 286 285 285 283 281 281 281 281 281 281 281 280 278 277 274 274 274 274 274 275 275 274 274 274 272 271 271 270 269 268 267 267 267 267 266 265 264
291 290 289 288 286 285 285 285 284 282 281 281 281 281 281 281 280 279 279 278 276 275 274 274 274 275 275 274 274 273 271 270 269 269 268 268 267 266 266 265 264 264 263
290 289 288 287 286 285 284 284 283 282 282 281 280 279 279 278 278 278 277 276 275 274 274 274 274 275 276 276 274 273 272 270 269 268 267 265 264 264 264 264 263 263 262